Volver al catálogo

DELTA 1 DEB

ActivoSSO
NORAD 9978·DEBRIS·🇺🇸 United States

Lanzado Nov 6, 1973 desde Vandenberg Space Force Base

Loading…

Próximos Pases (próximas 24 horas)

TLE

ActualizadoSource: Space-Track

Época: Sep 14, 2026, 08:11 UTC

1 09978U 73086GH  26257.34126635 -.00000103  00000-0 -47971-3 0  9996
2 09978 102.0773 197.7388 0052724 145.7964   6.0198 12.32997151303644

Sigue DELTA 1 DEB en tiempo real con AllMySat

Download on the App Store